Location: Arthez
(43.0833°N, 0.2500°W)
Time: 13:19:54
(UTC+00:00)

HJ-1C - Pass Details

Date: 23 October 2021
Orbit: 422 x 433 km, 97.1° (Epoch: 08 December)

Event Time Altitude Azimuth Distance (km) Brightness Sun altitude
Exits shadow 18:42:41 42° 30° (NNE) 626 3.8 -18.4°
Drops below altitude 10° 18:45:09 10° 358° (N) 1,528 6.1 -18.8°
Sets 18:47:12 0° 353° (N) 2,402 7.2 -19.2°
